When you browse on this site, cookies collect data to enhance your experience and personalize the content and advertising you see.
Visit our Privacy Policy to learn more. By continuing to use the site, you agree to this use of cookies and data.
  • In Latvia
  • List of Countries
  • For 7 days
  • Water Temperature
  • Satellite Maps
  • Weather Map
  • Weather Widgets
  • user-avatar
    Login

    Hourly Weather Mansa Konko

    Today, 26 April, Friday

    Time Temperature Precipitation Wind Pressure Humidity
    00:00 +34°C° 0 mm 4 mps 756 mmHg 18%
    01:00 +33°C° 0 mm 4 mps 756 mmHg 20%
    02:00 +32°C° 0 mm 4 mps 756 mmHg 21%
    03:00 +30°C° 0 mm 3 mps 756 mmHg 21%
    04:00 +30°C° 0 mm 3 mps 756 mmHg 22%
    05:00 +29°C° 0 mm 2 mps 756 mmHg 23%
    06:00 +31°C° 0 mm 3 mps 757 mmHg 20%
    07:00 +33°C° 0 mm 3 mps 757 mmHg 17%
    08:00 +35°C° 0 mm 4 mps 757 mmHg 14%
    09:00 +38°C° 0 mm 4 mps 757 mmHg 12%
    10:00 +42°C° 0 mm 4 mps 757 mmHg 10%
    11:00 +45°C° 0 mm 4 mps 757 mmHg 9%
    12:00 +47°C° 0 mm 4 mps 756 mmHg 8%
    13:00 +46°C° 0 mm 3 mps 755 mmHg 8%
    14:00 +47°C° 0 mm 3 mps 754 mmHg 8%
    15:00 +47°C° 0 mm 2 mps 754 mmHg 8%
    16:00 +47°C° 0 mm 2 mps 753 mmHg 8%
    17:00 +46°C° 0 mm 1 mps 753 mmHg 8%
    18:00 +45°C° 0 mm 2 mps 754 mmHg 10%
    19:00 +43°C° 0 mm 3 mps 754 mmHg 12%
    20:00 +40°C° 0 mm 4 mps 755 mmHg 15%
    21:00 +38°C° 0 mm 4 mps 756 mmHg 17%
    22:00 +36°C° 0 mm 3 mps 756 mmHg 18%
    23:00 +34°C° 0 mm 3 mps 757 mmHg 20%

    Tomorrow, 27 April, Saturday

    Time Temperature Precipitation Wind Pressure Humidity
    00:00 +34°C° 0 mm 3 mps 756 mmHg 21%
    01:00 +33°C° 0 mm 3 mps 756 mmHg 22%
    02:00 +31°C° 0 mm 3 mps 756 mmHg 24%
    03:00 +30°C° 0 mm 3 mps 756 mmHg 25%
    04:00 +30°C° 0 mm 3 mps 756 mmHg 25%
    05:00 +29°C° 0 mm 3 mps 755 mmHg 26%
    06:00 +30°C° 0 mm 3 mps 756 mmHg 25%
    07:00 +33°C° 0 mm 4 mps 756 mmHg 23%
    08:00 +34°C° 0 mm 4 mps 756 mmHg 22%
    09:00 +37°C° 0 mm 3 mps 756 mmHg 18%
    10:00 +40°C° 0 mm 3 mps 756 mmHg 15%
    11:00 +43°C° 0 mm 2 mps 756 mmHg 12%
    12:00 +45°C° 0 mm 2 mps 756 mmHg 11%
    13:00 +46°C° 0 mm 1 mps 755 mmHg 11%
    14:00 +47°C° 0 mm 1 mps 754 mmHg 10%
    15:00 +47°C° 0 mm 1 mps 753 mmHg 10%
    16:00 +46°C° 0 mm 1 mps 753 mmHg 11%
    17:00 +46°C° 0 mm 2 mps 753 mmHg 11%
    18:00 +44°C° 0 mm 3 mps 754 mmHg 14%
    19:00 +42°C° 0 mm 4 mps 754 mmHg 17%
    20:00 +39°C° 0 mm 5 mps 755 mmHg 20%
    21:00 +37°C° 0 mm 5 mps 756 mmHg 21%
    22:00 +36°C° 0 mm 4 mps 756 mmHg 21%
    23:00 +35°C° 0 mm 4 mps 756 mmHg 21%

    Day after tomorrow, 28 April, Sunday

    Time Temperature Precipitation Wind Pressure Humidity
    00:00 +34°C° 0 mm 4 mps 756 mmHg 23%
    01:00 +34°C° 0 mm 4 mps 756 mmHg 25%
    02:00 +33°C° 0 mm 4 mps 755 mmHg 27%
    03:00 +31°C° 0 mm 3 mps 755 mmHg 29%
    04:00 +31°C° 0 mm 3 mps 755 mmHg 31%
    05:00 +30°C° 0 mm 3 mps 755 mmHg 33%
    06:00 +31°C° 0 mm 3 mps 756 mmHg 31%
    07:00 +33°C° 0 mm 3 mps 756 mmHg 30%
    08:00 +34°C° 0 mm 3 mps 757 mmHg 28%
    09:00 +36°C° 0 mm 3 mps 757 mmHg 24%
    10:00 +39°C° 0 mm 3 mps 757 mmHg 20%
    11:00 +42°C° 0 mm 3 mps 756 mmHg 16%
    12:00 +44°C° 0 mm 3 mps 755 mmHg 15%
    13:00 +46°C° 0 mm 2 mps 754 mmHg 14%
    14:00 +47°C° 0 mm 2 mps 753 mmHg 13%
    15:00 +47°C° 0 mm 2 mps 753 mmHg 13%
    16:00 +47°C° 0 mm 2 mps 753 mmHg 13%
    17:00 +46°C° 0 mm 1 mps 752 mmHg 13%
    18:00 +45°C° 0 mm 3 mps 753 mmHg 15%
    19:00 +43°C° 0 mm 4 mps 754 mmHg 17%
    20:00 +41°C° 0 mm 6 mps 755 mmHg 19%
    21:00 +39°C° 0 mm 5 mps 755 mmHg 20%
    22:00 +37°C° 0 mm 5 mps 756 mmHg 21%
    23:00 +35°C° 0 mm 4 mps 756 mmHg 22%

    29 April, Monday

    Time Temperature Precipitation Wind Pressure Humidity
    00:00 +34°C° 0 mm 4 mps 756 mmHg 24%
    01:00 +33°C° 0 mm 4 mps 755 mmHg 26%
    02:00 +32°C° 0 mm 4 mps 755 mmHg 28%
    03:00 +31°C° 0 mm 3 mps 755 mmHg 29%
    04:00 +30°C° 0 mm 3 mps 755 mmHg 30%
    05:00 +29°C° 0 mm 2 mps 755 mmHg 32%
    06:00 +31°C° 0 mm 2 mps 756 mmHg 29%
    07:00 +32°C° 0 mm 2 mps 756 mmHg 27%
    08:00 +34°C° 0 mm 3 mps 757 mmHg 24%
    09:00 +37°C° 0 mm 3 mps 756 mmHg 20%
    10:00 +40°C° 0 mm 4 mps 756 mmHg 17%
    11:00 +43°C° 0 mm 4 mps 756 mmHg 13%
    12:00 +45°C° 0 mm 4 mps 755 mmHg 11%
    13:00 +47°C° 0 mm 4 mps 754 mmHg 10%
    14:00 +48°C° 0 mm 3 mps 752 mmHg 9%
    15:00 +48°C° 0 mm 3 mps 752 mmHg 9%
    16:00 +48°C° 0 mm 3 mps 752 mmHg 9%
    17:00 +48°C° 0 mm 2 mps 752 mmHg 8%
    18:00 +46°C° 0 mm 3 mps 753 mmHg 12%
    19:00 +43°C° 0 mm 4 mps 754 mmHg 15%
    20:00 +40°C° 0 mm 5 mps 754 mmHg 19%
    21:00 +38°C° 0 mm 4 mps 755 mmHg 23%
    22:00 +36°C° 0 mm 3 mps 756 mmHg 27%
    23:00 +34°C° 0 mm 3 mps 756 mmHg 32%

    30 April, Tuesday

    Time Temperature Precipitation Wind Pressure Humidity
    00:00 +33°C° 0 mm 3 mps 756 mmHg 34%
    01:00 +31°C° 0 mm 3 mps 756 mmHg 36%
    02:00 +30°C° 0 mm 3 mps 755 mmHg 39%
    03:00 +30°C° 0 mm 2 mps 756 mmHg 42%
    04:00 +29°C° 0 mm 2 mps 756 mmHg 44%
    05:00 +28°C° 0 mm 2 mps 756 mmHg 47%
    06:00 +29°C° 0 mm 2 mps 757 mmHg 44%
    07:00 +30°C° 0 mm 2 mps 757 mmHg 41%
    08:00 +31°C° 0 mm 2 mps 758 mmHg 38%
    09:00 +34°C° 0 mm 1 mps 757 mmHg 31%
    10:00 +37°C° 0 mm 1 mps 757 mmHg 24%
    11:00 +41°C° 0 mm 1 mps 757 mmHg 17%
    12:00 +43°C° 0 mm 1 mps 756 mmHg 16%
    13:00 +42°C° 0 mm 0 mps 755 mmHg 14%
    14:00 +43°C° 0 mm 0 mps 754 mmHg 12%
    15:00 +46°C° 0 mm 1 mps 754 mmHg 12%
    16:00 +45°C° 0 mm 1 mps 754 mmHg 12%
    17:00 +45°C° 0 mm 2 mps 754 mmHg 12%
    18:00 +42°C° 0 mm 3 mps 755 mmHg 20%
    19:00 +37°C° 0 mm 5 mps 756 mmHg 28%
    20:00 +34°C° 0 mm 6 mps 757 mmHg 36%
    21:00 +33°C° 0 mm 5 mps 757 mmHg 39%
    22:00 +30°C° 0 mm 5 mps 758 mmHg 42%
    23:00 +29°C° 0 mm 4 mps 758 mmHg 45%

    1 May, Wednesday

    Time Temperature Precipitation Wind Pressure Humidity
    00:00 +29°C° 0 mm 3 mps 758 mmHg 47%
    01:00 +28°C° 0 mm 3 mps 757 mmHg 49%
    02:00 +27°C° 0 mm 2 mps 757 mmHg 51%
    03:00 +27°C° 0 mm 2 mps 757 mmHg 53%
    04:00 +27°C° 0 mm 2 mps 757 mmHg 54%
    05:00 +26°C° 0 mm 2 mps 757 mmHg 56%
    06:00 +27°C° 0 mm 2 mps 758 mmHg 51%
    07:00 +28°C° 0 mm 2 mps 758 mmHg 46%
    08:00 +29°C° 0 mm 2 mps 759 mmHg 41%
    09:00 +32°C° 0 mm 2 mps 759 mmHg 33%
    10:00 +35°C° 0 mm 2 mps 758 mmHg 25%
    11:00 +38°C° 0 mm 3 mps 758 mmHg 17%
    12:00 +40°C° 0 mm 3 mps 757 mmHg 15%
    13:00 +42°C° 0 mm 3 mps 756 mmHg 12%
    14:00 +44°C° 0 mm 3 mps 755 mmHg 10%
    15:00 +43°C° 0 mm 3 mps 755 mmHg 11%
    16:00 +43°C° 0 mm 3 mps 755 mmHg 12%
    17:00 +43°C° 0 mm 4 mps 755 mmHg 13%
    18:00 +40°C° 0 mm 4 mps 756 mmHg 21%
    19:00 +36°C° 0 mm 5 mps 756 mmHg 29%
    20:00 +33°C° 0 mm 6 mps 757 mmHg 38%
    21:00 +32°C° 0 mm 5 mps 757 mmHg 38%
    22:00 +30°C° 0 mm 4 mps 757 mmHg 39%
    23:00 +29°C° 0 mm 4 mps 758 mmHg 39%
    Show more